This is the latest recevied weather packets stored in our database for station/object OK4PZ-5. If no packets are shown the sender has not sent any weather packets the latest 1 day(s).
| Time | Temp. | Humidity | Pressure | Rain* | Wind** | Luminosity | Snow |
|---|---|---|---|---|---|---|---|
| 1836274677 | 8.89° C | 99% | 1025 hPa | 0 mm | 0 m/s | - | - |
| 1778023802 | 14.44° C | 84% | 1009 hPa | 0 mm | 1.34 m/s, 293° | - | - |
| 1778022902 | 14.44° C | 82% | 1009 hPa | 0 mm | 0.89 m/s, 334° | - | - |
| 1778022002 | 14.44° C | 82% | 1009 hPa | 0 mm | 0.89 m/s, 292° | - | - |
| 1778021102 | 15° C | 79% | 1009 hPa | 0 mm | 1.79 m/s, 241° | - | - |
| 1778020202 | 15.56° C | 74% | 1009 hPa | 0 mm | 1.34 m/s, 234° | - | - |
| 1778019302 | 16.11° C | 72% | 1009 hPa | 0 mm | 3.58 m/s, 256° | - | - |
| 1778018402 | 16.11° C | 71% | 1009 hPa | 0 mm | 0.89 m/s, 227° | - | - |
| 1778017502 | 16.67° C | 71% | 1009 hPa | 0 mm | 1.79 m/s, 207° | - | - |
| 1778016603 | 16.67° C | 71% | 1008 hPa | 0 mm | 2.24 m/s, 305° | - | - |
| 1778015701 | 16.67° C | 73% | 1008 hPa | 0 mm | 1.79 m/s, 285° | - | - |
| 1778014802 | 16.11° C | 74% | 1008 hPa | 0 mm | 1.34 m/s, 232° | - | - |
| 1778013902 | 16.11° C | 71% | 1008 hPa | 0 mm | 0.45 m/s, 248° | - | - |
| 1778013002 | 16.11° C | 66% | 1007 hPa | 0 mm | 0.45 m/s, 208° | - | - |
| 1778012102 | 15.56° C | 70% | 1007 hPa | 0 mm | 0 m/s | - | - |
| 1778011202 | 16.11° C | 66% | 1006 hPa | 0 mm | 0 m/s | - | - |
| 1778010302 | 17.22° C | 65% | 1006 hPa | 0 mm | 0.45 m/s, 4° | - | - |
| 1778009402 | 17.78° C | 63% | 1006 hPa | 0 mm | 0 m/s | - | - |
| 1778008502 | 17.78° C | 62% | 1006 hPa | 0 mm | 0.45 m/s, 38° | - | - |
| 1778007602 | 17.78° C | 61% | 1006 hPa | 0 mm | 0.89 m/s, 33° | - | - |
| 1778006702 | 18.33° C | 60% | 1006 hPa | 0 mm | 0.89 m/s, 29° | - | - |
| 1778005803 | 18.89° C | 58% | 1006 hPa | 0 mm | 0.89 m/s, 96° | - | - |
| 1778004902 | 18.89° C | 58% | 1006 hPa | 0 mm | 0.89 m/s, 65° | - | - |
| 1778004003 | 19.44° C | 57% | 1006 hPa | 0 mm | 0.89 m/s, 41° | - | - |
| 1778003102 | 20° C | 56% | 1006 hPa | 0 mm | 1.34 m/s, 29° | - | - |
* Rain latest hour (hover to see other rain measurements)
** Current wind speed in m/s (hover to see current wind gust speed)